| Date | Time | Temp. (oF) | Dew Point (oF) | Rel. Hum. (%) | Press. (in.) | Wind Dir. | Wind Speed (mph) | Hourly Rainfall (in.) |
|
|---|---|---|---|---|---|---|---|---|---|
| 1 | 12/26 | 00:00 | 24 | 21 | 90 | 30.39 | SW | 1 | 0.00 |
| 2 | 12/25 | 23:00 | 25 | 21 | 86 | 30.38 | SW | 0 | 0.00 |
| 3 | 12/25 | 22:00 | 26 | 21 | 82 | 30.38 | SW | 1 | 0.00 |
| 4 | 12/25 | 21:00 | 27 | 21 | 78 | 30.36 | SW | 1 | 0.00 |
| 5 | 12/25 | 20:00 | 28 | 21 | 75 | 30.36 | SW | 0 | 0.00 |
| 6 | 12/25 | 19:00 | 29 | 20 | 69 | 30.35 | SW | 1 | 0.00 |
| 7 | 12/25 | 18:00 | 31 | 20 | 64 | 30.33 | WNW | 1 | 0.00 |
| 8 | 12/25 | 17:00 | 33 | 20 | 60 | 30.32 | W | 3 | 0.00 |
| 9 | 12/25 | 16:00 | 35 | 20 | 56 | 30.31 | W | 6 | 0.00 |
| 10 | 12/25 | 15:00 | 36 | 20 | 54 | 30.30 | WSW | 3 | 0.00 |
| 11 | 12/25 | 14:00 | 37 | 21 | 54 | 30.28 | W | 5 | 0.00 |
| 12 | 12/25 | 13:00 | 36 | 21 | 55 | 30.29 | W | 6 | 0.00 |
| 13 | 12/25 | 12:00 | 35 | 20 | 56 | 30.30 | WNW | 4 | 0.00 |
| 14 | 12/25 | 11:00 | 34 | 21 | 59 | 30.33 | WNW | 9 | 0.00 |
| 15 | 12/25 | 10:00 | 34 | 23 | 64 | 30.35 | SSW | 6 | 0.00 |
| 16 | 12/25 | 09:00 | 31 | 22 | 69 | 30.33 | SW | 2 | 0.00 |
| 17 | 12/25 | 08:00 | 28 | 20 | 73 | 30.32 | SSW | 4 | 0.00 |
| 18 | 12/25 | 07:00 | 28 | 20 | 72 | 30.30 | WSW | 1 | 0.00 |
| 19 | 12/25 | 06:00 | 28 | 20 | 72 | 30.28 | SSW | 2 | 0.00 |
| 20 | 12/25 | 05:00 | 28 | 19 | 71 | 30.27 | WSW | 3 | 0.00 |
| 21 | 12/25 | 04:00 | 28 | 19 | 69 | 30.25 | S | 2 | 0.00 |
| 22 | 12/25 | 03:00 | 29 | 19 | 67 | 30.25 | WSW | 3 | 0.00 |
| 23 | 12/25 | 02:00 | 30 | 19 | 64 | 30.24 | SSW | 3 | 0.00 |
| 24 | 12/25 | 01:00 | 31 | 19 | 62 | 30.23 | SW | 3 | 0.00 |